Year,Month,Day,Hour,Minute,Value (Times are PST for temperature in C)
2013,02,02,00,00,-14.60
2013,02,02,00,01,-14.60
2013,02,02,00,02,-14.60
2013,02,02,00,03,-14.60
2013,02,02,00,04,-14.60
2013,02,02,00,05,-14.60
2013,02,02,00,06,-14.60
2013,02,02,00,07,-14.60
2013,02,02,00,08,-14.60
2013,02,02,00,09,-14.60
2013,02,02,00,10,-14.60
2013,02,02,00,11,-14.60
2013,02,02,00,12,-14.60
2013,02,02,00,13,-14.60
2013,02,02,00,14,-14.60
2013,02,02,00,15,-14.60
2013,02,02,00,16,-14.60
2013,02,02,00,17,-14.60
2013,02,02,00,18,-14.60
2013,02,02,00,19,-14.60
2013,02,02,00,20,-14.60
2013,02,02,00,21,-14.60
2013,02,02,00,22,-14.60
2013,02,02,00,23,-14.60
2013,02,02,00,24,-14.60
2013,02,02,00,25,-14.60
2013,02,02,00,26,-14.60
2013,02,02,00,27,-14.60
2013,02,02,00,28,-14.70
2013,02,02,00,29,-14.60
2013,02,02,00,30,-14.60
2013,02,02,00,31,-14.60
2013,02,02,00,32,-14.60
2013,02,02,00,33,-14.60
2013,02,02,00,34,-14.60
2013,02,02,00,35,-14.60
2013,02,02,00,36,-14.60
2013,02,02,00,37,-14.60
2013,02,02,00,38,-14.50
2013,02,02,00,39,-14.50
2013,02,02,00,40,-14.50
2013,02,02,00,41,-14.50
2013,02,02,00,42,-14.50
2013,02,02,00,43,-14.50
2013,02,02,00,44,-14.50
2013,02,02,00,45,-14.50
2013,02,02,00,46,-14.50
2013,02,02,00,47,-14.50
2013,02,02,00,48,-14.50
2013,02,02,00,49,-14.50
2013,02,02,00,50,-14.50
2013,02,02,00,51,-14.50
2013,02,02,00,52,-14.50
2013,02,02,00,53,-14.50
2013,02,02,00,54,-14.50
2013,02,02,00,55,-14.50
2013,02,02,00,56,-14.50
2013,02,02,00,57,-14.50
2013,02,02,00,58,-14.50
2013,02,02,00,59,-14.50
2013,02,02,01,00,-14.50
2013,02,02,01,01,-14.50
2013,02,02,01,02,-14.50
2013,02,02,01,03,-14.50
2013,02,02,01,04,-14.50
2013,02,02,01,05,-14.50
2013,02,02,01,06,-14.50
2013,02,02,01,07,-14.50
2013,02,02,01,08,-14.50
2013,02,02,01,09,-14.50
2013,02,02,01,10,-14.50
2013,02,02,01,11,-14.50
2013,02,02,01,12,-14.50
2013,02,02,01,13,-14.50
2013,02,02,01,14,-14.50
2013,02,02,01,15,-14.50
2013,02,02,01,16,-14.50
2013,02,02,01,17,-14.50
2013,02,02,01,18,-14.50
2013,02,02,01,19,-14.50
2013,02,02,01,20,-14.50
2013,02,02,01,21,-14.50
2013,02,02,01,22,-14.50
2013,02,02,01,23,-14.50
2013,02,02,01,24,-14.50
2013,02,02,01,25,-14.50
2013,02,02,01,26,-14.50
2013,02,02,01,27,-14.50
2013,02,02,01,28,-14.50
2013,02,02,01,29,-14.50
2013,02,02,01,30,-14.50
2013,02,02,01,31,-14.40
2013,02,02,01,32,-14.40
2013,02,02,01,33,-14.50
2013,02,02,01,34,-14.40
2013,02,02,01,35,-14.40
2013,02,02,01,36,-14.40
2013,02,02,01,37,-14.40
2013,02,02,01,38,-14.40
2013,02,02,01,39,-14.40
2013,02,02,01,40,-14.40
2013,02,02,01,41,-14.40
2013,02,02,01,42,-14.40
2013,02,02,01,43,-14.40
2013,02,02,01,44,-14.40
2013,02,02,01,45,-14.40
2013,02,02,01,46,-14.40
2013,02,02,01,47,-14.40
2013,02,02,01,48,-14.40
2013,02,02,01,49,-14.40
2013,02,02,01,50,-14.40
2013,02,02,01,51,-14.40
2013,02,02,01,52,-14.40
2013,02,02,01,53,-14.40
2013,02,02,01,54,-14.40
2013,02,02,01,55,-14.40
2013,02,02,01,56,-14.40
2013,02,02,01,57,-14.30
2013,02,02,01,58,-14.30
2013,02,02,01,59,-14.30
2013,02,02,02,00,-14.30
2013,02,02,02,01,-14.30
2013,02,02,02,02,-14.30
2013,02,02,02,03,-14.30
2013,02,02,02,04,-14.30
2013,02,02,02,05,-14.30
2013,02,02,02,06,-14.30
2013,02,02,02,07,-14.30
2013,02,02,02,08,-14.30
2013,02,02,02,09,-14.30
2013,02,02,02,10,-14.30
2013,02,02,02,11,-14.30
2013,02,02,02,12,-14.30
2013,02,02,02,13,-14.30
2013,02,02,02,14,-14.30
2013,02,02,02,15,-14.30
2013,02,02,02,16,-14.30
2013,02,02,02,17,-14.30
2013,02,02,02,18,-14.30
2013,02,02,02,19,-14.30
2013,02,02,02,20,-14.30
2013,02,02,02,21,-14.30
2013,02,02,02,22,-14.30
2013,02,02,02,23,-14.30
2013,02,02,02,24,-14.30
2013,02,02,02,25,-14.30
2013,02,02,02,26,-14.30
2013,02,02,02,27,-14.30
2013,02,02,02,28,-14.30
2013,02,02,02,29,-14.30
2013,02,02,02,30,-14.30
2013,02,02,02,31,-14.30
2013,02,02,02,32,-14.30
2013,02,02,02,33,-14.30
2013,02,02,02,34,-14.30
2013,02,02,02,35,-14.30
2013,02,02,02,36,-14.30
2013,02,02,02,37,-14.30
2013,02,02,02,38,-14.30
2013,02,02,02,39,-14.30
2013,02,02,02,40,-14.30
2013,02,02,02,41,-14.30
2013,02,02,02,42,-14.30
2013,02,02,02,43,-14.30
2013,02,02,02,44,-14.30
2013,02,02,02,45,-14.30
2013,02,02,02,46,-14.30
2013,02,02,02,47,-14.30
2013,02,02,02,48,-14.30
2013,02,02,02,49,-14.30
2013,02,02,02,50,-14.30
2013,02,02,02,51,-14.30
2013,02,02,02,52,-14.30
2013,02,02,02,53,-14.30
2013,02,02,02,54,-14.30
2013,02,02,02,55,-14.30
2013,02,02,02,56,-14.30
2013,02,02,02,57,-14.30
2013,02,02,02,58,-14.30
2013,02,02,02,59,-14.30
2013,02,02,03,00,-14.30
2013,02,02,03,01,-14.30
2013,02,02,03,02,-14.30
2013,02,02,03,03,-14.30
2013,02,02,03,04,-14.30
2013,02,02,03,05,-14.30
2013,02,02,03,06,-14.30
2013,02,02,03,07,-14.30
2013,02,02,03,08,-14.30
2013,02,02,03,09,-14.30
2013,02,02,03,10,-14.30
2013,02,02,03,11,-14.30
2013,02,02,03,12,-14.30
2013,02,02,03,13,-14.30
2013,02,02,03,14,-14.40
2013,02,02,03,15,-14.40
2013,02,02,03,16,-14.40
2013,02,02,03,17,-14.30
2013,02,02,03,18,-14.40
2013,02,02,03,19,-14.40
2013,02,02,03,20,-14.40
2013,02,02,03,21,-14.40
2013,02,02,03,22,-14.40
2013,02,02,03,23,-14.40
2013,02,02,03,24,-14.30
2013,02,02,03,25,-14.30
2013,02,02,03,26,-14.30
2013,02,02,03,27,-14.30
2013,02,02,03,28,-14.30
2013,02,02,03,29,-14.30
2013,02,02,03,30,-14.30
2013,02,02,03,31,-14.30
2013,02,02,03,32,-14.30
2013,02,02,03,33,-14.30
2013,02,02,03,34,-14.30
2013,02,02,03,35,-14.30
2013,02,02,03,36,-14.30
2013,02,02,03,37,-14.30
2013,02,02,03,38,-14.30
2013,02,02,03,39,-14.30
2013,02,02,03,40,-14.30
2013,02,02,03,41,-14.30
2013,02,02,03,42,-14.30
2013,02,02,03,43,-14.30
2013,02,02,03,44,-14.30
2013,02,02,03,45,-14.40
2013,02,02,03,46,-14.30
2013,02,02,03,47,-14.40
2013,02,02,03,48,-14.40
2013,02,02,03,49,-14.40
2013,02,02,03,50,-14.40
2013,02,02,03,51,-14.40
2013,02,02,03,52,-14.40
2013,02,02,03,53,-14.40
2013,02,02,03,54,-14.40
2013,02,02,03,55,-14.40
2013,02,02,03,56,-14.40
2013,02,02,03,57,-14.40
2013,02,02,03,58,-14.40
2013,02,02,03,59,-14.40
2013,02,02,04,00,-14.40
2013,02,02,04,01,-14.40
2013,02,02,04,02,-14.40
2013,02,02,04,03,-14.40
2013,02,02,04,04,-14.40
2013,02,02,04,05,-14.40
2013,02,02,04,06,-14.40
2013,02,02,04,07,-14.40
2013,02,02,04,08,-14.40
2013,02,02,04,09,-14.40
2013,02,02,04,10,-14.40
2013,02,02,04,11,-14.40
2013,02,02,04,12,-14.30
2013,02,02,04,13,-14.40
2013,02,02,04,14,-14.30
2013,02,02,04,15,-14.40
2013,02,02,04,16,-14.30
2013,02,02,04,17,-14.30
2013,02,02,04,18,-14.40
2013,02,02,04,19,-14.40
2013,02,02,04,20,-14.40
2013,02,02,04,21,-14.30
2013,02,02,04,22,-14.40
2013,02,02,04,23,-14.40
2013,02,02,04,24,-14.40
2013,02,02,04,25,-14.40
2013,02,02,04,26,-14.40
2013,02,02,04,27,-14.40
2013,02,02,04,28,-14.40
2013,02,02,04,29,-14.40
2013,02,02,04,30,-14.40
2013,02,02,04,31,-14.40
2013,02,02,04,32,-14.40
2013,02,02,04,33,-14.40
2013,02,02,04,34,-14.40
2013,02,02,04,35,-14.40
2013,02,02,04,36,-14.30
2013,02,02,04,37,-14.30
2013,02,02,04,38,-14.30
2013,02,02,04,39,-14.30
2013,02,02,04,40,-14.30
2013,02,02,04,41,-14.30
2013,02,02,04,42,-14.30
2013,02,02,04,43,-14.30
2013,02,02,04,44,-14.30
2013,02,02,04,45,-14.30
2013,02,02,04,46,-14.30
2013,02,02,04,47,-14.30
2013,02,02,04,48,-14.30
2013,02,02,04,49,-14.30
2013,02,02,04,50,-14.30
2013,02,02,04,51,-14.30
2013,02,02,04,52,-14.30
2013,02,02,04,53,-14.30
2013,02,02,04,54,-14.30
2013,02,02,04,55,-14.30
2013,02,02,04,56,-14.30
2013,02,02,04,57,-14.30
2013,02,02,04,58,-14.30
2013,02,02,04,59,-14.30
2013,02,02,05,00,-14.30
2013,02,02,05,01,-14.30
2013,02,02,05,02,-14.30
2013,02,02,05,03,-14.30
2013,02,02,05,04,-14.30
2013,02,02,05,05,-14.30
2013,02,02,05,06,-14.30
2013,02,02,05,07,-14.30
2013,02,02,05,08,-14.30
2013,02,02,05,09,-14.30
2013,02,02,05,10,-14.30
2013,02,02,05,11,-14.30
2013,02,02,05,12,-14.30
2013,02,02,05,13,-14.30
2013,02,02,05,14,-14.30
2013,02,02,05,15,-14.30
2013,02,02,05,16,-14.30
2013,02,02,05,17,-14.30
2013,02,02,05,18,-14.30
2013,02,02,05,19,-14.30
2013,02,02,05,20,-14.30
2013,02,02,05,21,-14.30
2013,02,02,05,22,-14.30
2013,02,02,05,23,-14.30
2013,02,02,05,24,-14.30
2013,02,02,05,25,-14.30
2013,02,02,05,26,-14.30
2013,02,02,05,27,-14.30
2013,02,02,05,28,-14.30
2013,02,02,05,29,-14.30
2013,02,02,05,30,-14.30
2013,02,02,05,31,-14.30
2013,02,02,05,32,-14.30
2013,02,02,05,33,-14.30
2013,02,02,05,34,-14.30
2013,02,02,05,35,-14.30
2013,02,02,05,36,-14.30
2013,02,02,05,37,-14.30
2013,02,02,05,38,-14.30
2013,02,02,05,39,-14.30
2013,02,02,05,40,-14.30
2013,02,02,05,41,-14.30
2013,02,02,05,42,-14.30
2013,02,02,05,43,-14.30
2013,02,02,05,44,-14.30
2013,02,02,05,45,-14.30
2013,02,02,05,46,-14.30
2013,02,02,05,47,-14.30
2013,02,02,05,48,-14.30
2013,02,02,05,49,-14.30
2013,02,02,05,50,-14.20
2013,02,02,05,51,-14.20
2013,02,02,05,52,-14.20
2013,02,02,05,53,-14.20
2013,02,02,05,54,-14.20
2013,02,02,05,55,-14.20
2013,02,02,05,56,-14.20
2013,02,02,05,57,-14.20
2013,02,02,05,58,-14.20
2013,02,02,05,59,-14.20
2013,02,02,06,00,-14.20
2013,02,02,06,01,-14.20
2013,02,02,06,02,-14.20
2013,02,02,06,03,-14.20
2013,02,02,06,04,-14.20
2013,02,02,06,05,-14.20
2013,02,02,06,06,-14.20
2013,02,02,06,07,-14.20
2013,02,02,06,08,-14.20
2013,02,02,06,09,-14.20
2013,02,02,06,10,-14.20
2013,02,02,06,11,-14.20
2013,02,02,06,12,-14.20
2013,02,02,06,13,-14.20
2013,02,02,06,14,-14.20
2013,02,02,06,15,-14.20
2013,02,02,06,16,-14.20
2013,02,02,06,17,-14.20
2013,02,02,06,18,-14.20
2013,02,02,06,19,-14.20
2013,02,02,06,20,-14.20
2013,02,02,06,21,-14.20
2013,02,02,06,22,-14.20
2013,02,02,06,23,-14.10
2013,02,02,06,24,-14.10
2013,02,02,06,25,-14.10
2013,02,02,06,26,-14.10
2013,02,02,06,27,-14.10
2013,02,02,06,28,-14.10
2013,02,02,06,29,-14.10
2013,02,02,06,30,-14.10
2013,02,02,06,31,-14.00
2013,02,02,06,32,-14.00
2013,02,02,06,33,-14.00
2013,02,02,06,34,-14.00
2013,02,02,06,35,-14.00
2013,02,02,06,36,-14.00
2013,02,02,06,37,-14.00
2013,02,02,06,38,-14.00
2013,02,02,06,39,-14.00
2013,02,02,06,40,-13.90
2013,02,02,06,41,-13.90
2013,02,02,06,42,-14.00
2013,02,02,06,43,-13.90
2013,02,02,06,44,-13.90
2013,02,02,06,45,-13.90
2013,02,02,06,46,-13.90
2013,02,02,06,47,-13.90
2013,02,02,06,48,-13.90
2013,02,02,06,49,-13.90
2013,02,02,06,50,-13.90
2013,02,02,06,51,-14.00
2013,02,02,06,52,-14.00
2013,02,02,06,53,-14.00
2013,02,02,06,54,-14.00
2013,02,02,06,55,-14.00
2013,02,02,06,56,-14.00
2013,02,02,06,57,-14.00
2013,02,02,06,58,-14.00
2013,02,02,06,59,-14.00
2013,02,02,07,00,-14.00
2013,02,02,07,01,-14.00
2013,02,02,07,02,-14.00
2013,02,02,07,03,-14.00
2013,02,02,07,04,-14.00
2013,02,02,07,05,-14.00
2013,02,02,07,06,-14.00
2013,02,02,07,07,-14.00
2013,02,02,07,08,-14.00
2013,02,02,07,09,-14.00
2013,02,02,07,10,-14.00
2013,02,02,07,11,-14.00
2013,02,02,07,12,-14.00
2013,02,02,07,13,-14.00
2013,02,02,07,14,-14.00
2013,02,02,07,15,-14.00
2013,02,02,07,16,-14.00
2013,02,02,07,17,-14.00
2013,02,02,07,18,-14.00
2013,02,02,07,19,-14.00
2013,02,02,07,20,-14.00
2013,02,02,07,21,-14.00
2013,02,02,07,22,-14.00
2013,02,02,07,23,-14.00
2013,02,02,07,24,-13.90
2013,02,02,07,25,-13.90
2013,02,02,07,26,-13.90
2013,02,02,07,27,-13.90
2013,02,02,07,28,-13.90
2013,02,02,07,29,-13.90
2013,02,02,07,30,-13.90
2013,02,02,07,31,-13.90
2013,02,02,07,32,-13.90
2013,02,02,07,33,-13.90
2013,02,02,07,34,-13.90
2013,02,02,07,35,-13.90
2013,02,02,07,36,-13.90
2013,02,02,07,37,-13.90
2013,02,02,07,38,-13.90
2013,02,02,07,39,-13.90
2013,02,02,07,40,-13.90
2013,02,02,07,41,-13.90
2013,02,02,07,42,-13.90
2013,02,02,07,43,-13.80
2013,02,02,07,44,-13.80
2013,02,02,07,45,-13.80
2013,02,02,07,46,-13.80
2013,02,02,07,47,-13.90
2013,02,02,07,48,-13.90
2013,02,02,07,49,-13.90
2013,02,02,07,50,-13.90
2013,02,02,07,51,-13.90
2013,02,02,07,52,-13.90
2013,02,02,07,53,-13.90
2013,02,02,07,54,-13.90
2013,02,02,07,55,-13.90
2013,02,02,07,56,-13.90
2013,02,02,07,57,-13.90
2013,02,02,07,58,-13.90
2013,02,02,07,59,-13.80
2013,02,02,08,00,-13.80
2013,02,02,08,01,-13.80
2013,02,02,08,02,-13.80
2013,02,02,08,03,-13.80
2013,02,02,08,04,-13.80
2013,02,02,08,05,-13.80
2013,02,02,08,06,-13.80
2013,02,02,08,07,-13.80
2013,02,02,08,08,-13.80
2013,02,02,08,09,-13.80
2013,02,02,08,10,-13.80
2013,02,02,08,11,-13.80
2013,02,02,08,12,-13.80
2013,02,02,08,13,-13.80
2013,02,02,08,14,-13.80
2013,02,02,08,15,-13.80
2013,02,02,08,16,-13.80
2013,02,02,08,17,-13.80
2013,02,02,08,18,-13.80
2013,02,02,08,19,-13.80
2013,02,02,08,20,-13.80
2013,02,02,08,21,-13.80
2013,02,02,08,22,-13.80
2013,02,02,08,23,-13.80
2013,02,02,08,24,-13.80
2013,02,02,08,25,-13.80
2013,02,02,08,26,-13.80
2013,02,02,08,27,-13.80
2013,02,02,08,28,-13.80
2013,02,02,08,29,-13.80
2013,02,02,08,30,-13.80
2013,02,02,08,31,-13.80
2013,02,02,08,32,-13.80
2013,02,02,08,33,-13.70
2013,02,02,08,34,-13.70
2013,02,02,08,35,-13.70
2013,02,02,08,36,-13.70
2013,02,02,08,37,-13.70
2013,02,02,08,38,-13.70
2013,02,02,08,39,-13.70
2013,02,02,08,40,-13.70
2013,02,02,08,41,-13.70
2013,02,02,08,42,-13.70
2013,02,02,08,43,-13.70
2013,02,02,08,44,-13.70
2013,02,02,08,45,-13.60
2013,02,02,08,46,-13.60
2013,02,02,08,47,-13.60
2013,02,02,08,48,-13.60
2013,02,02,08,49,-13.60
2013,02,02,08,50,-13.60
2013,02,02,08,51,-13.60
2013,02,02,08,52,-13.60
2013,02,02,08,53,-13.60
2013,02,02,08,54,-13.60
2013,02,02,08,55,-13.60
2013,02,02,08,56,-13.60
2013,02,02,08,57,-13.60
2013,02,02,08,58,-13.60
2013,02,02,08,59,-13.60
2013,02,02,09,00,-13.60
2013,02,02,09,01,-13.60
2013,02,02,09,02,-13.60
2013,02,02,09,03,-13.60
2013,02,02,09,04,-13.60
2013,02,02,09,05,-13.60
2013,02,02,09,06,-13.60
2013,02,02,09,07,-13.60
2013,02,02,09,08,-13.60
2013,02,02,09,09,-13.60
2013,02,02,09,10,-13.50
2013,02,02,09,11,-13.50
2013,02,02,09,12,-13.50
2013,02,02,09,13,-13.50
2013,02,02,09,14,-13.50
2013,02,02,09,15,-13.50
2013,02,02,09,16,-13.50
2013,02,02,09,17,-13.50
2013,02,02,09,18,-13.50
2013,02,02,09,19,-13.50
2013,02,02,09,20,-13.50
2013,02,02,09,21,-13.50
2013,02,02,09,22,-13.50
2013,02,02,09,23,-13.50
2013,02,02,09,24,-13.50
2013,02,02,09,25,-13.50
2013,02,02,09,26,-13.50
2013,02,02,09,27,-13.50
2013,02,02,09,28,-13.50
2013,02,02,09,29,-13.40
2013,02,02,09,30,-13.40
2013,02,02,09,31,-13.40
2013,02,02,09,32,-13.40
2013,02,02,09,33,-13.40
2013,02,02,09,34,-13.40
2013,02,02,09,35,-13.40
2013,02,02,09,36,-13.40
2013,02,02,09,37,-13.40
2013,02,02,09,38,-13.40
2013,02,02,09,39,-13.40
2013,02,02,09,40,-13.40
2013,02,02,09,41,-13.40
2013,02,02,09,42,-13.40
2013,02,02,09,43,-13.40
2013,02,02,09,44,-13.40
2013,02,02,09,45,-13.40
2013,02,02,09,46,-13.40
2013,02,02,09,47,-13.40
2013,02,02,09,48,-13.40
2013,02,02,09,49,-13.40
2013,02,02,09,50,-13.40
2013,02,02,09,51,-13.40
2013,02,02,09,52,-13.40
2013,02,02,09,53,-13.40
2013,02,02,09,54,-13.30
2013,02,02,09,55,-13.30
2013,02,02,09,56,-13.30
2013,02,02,09,57,-13.30
2013,02,02,09,58,-13.30
2013,02,02,09,59,-13.30
2013,02,02,10,00,-13.30
2013,02,02,10,01,-13.30
2013,02,02,10,02,-13.30
2013,02,02,10,03,-13.30
2013,02,02,10,04,-13.30
2013,02,02,10,05,-13.30
2013,02,02,10,06,-13.30
2013,02,02,10,07,-13.30
2013,02,02,10,08,-13.30
2013,02,02,10,09,-13.30
2013,02,02,10,10,-13.30
2013,02,02,10,11,-13.30
2013,02,02,10,12,-13.30
2013,02,02,10,13,-13.30
2013,02,02,10,14,-13.30
2013,02,02,10,15,-13.30
2013,02,02,10,16,-13.30
2013,02,02,10,17,-13.30
2013,02,02,10,18,-13.30
2013,02,02,10,19,-13.30
2013,02,02,10,20,-13.30
2013,02,02,10,21,-13.30
2013,02,02,10,22,-13.30
2013,02,02,10,23,-13.30
2013,02,02,10,24,-13.30
2013,02,02,10,25,-13.30
2013,02,02,10,26,-13.30
2013,02,02,10,27,-13.30
2013,02,02,10,28,-13.30
2013,02,02,10,29,-13.30
2013,02,02,10,30,-13.30
2013,02,02,10,31,-13.30
2013,02,02,10,32,-13.30
2013,02,02,10,33,-13.30
2013,02,02,10,34,-13.30
2013,02,02,10,35,-13.20
2013,02,02,10,36,-13.20
2013,02,02,10,37,-13.20
2013,02,02,10,38,-13.20
2013,02,02,10,39,-13.20
2013,02,02,10,40,-13.20
2013,02,02,10,41,-13.20
2013,02,02,10,42,-13.20
2013,02,02,10,43,-13.20
2013,02,02,10,44,-13.20
2013,02,02,10,45,-13.20
2013,02,02,10,46,-13.20
2013,02,02,10,47,-13.20
2013,02,02,10,48,-13.20
2013,02,02,10,49,-13.20
2013,02,02,10,50,-13.20
2013,02,02,10,51,-13.20
2013,02,02,10,52,-13.20
2013,02,02,10,53,-13.20
2013,02,02,10,54,-13.20
2013,02,02,10,55,-13.20
2013,02,02,10,56,-13.20
2013,02,02,10,57,-13.20
2013,02,02,10,58,-13.20
2013,02,02,10,59,-13.20
2013,02,02,11,00,-13.20
2013,02,02,11,01,-13.20
2013,02,02,11,02,-13.20
2013,02,02,11,03,-13.10
2013,02,02,11,04,-13.10
2013,02,02,11,05,-13.10
2013,02,02,11,06,-13.10
2013,02,02,11,07,-13.10
2013,02,02,11,08,-13.10
2013,02,02,11,09,-13.10
2013,02,02,11,10,-13.10
2013,02,02,11,11,-13.10
2013,02,02,11,12,-13.10
2013,02,02,11,13,-13.10
2013,02,02,11,14,-13.10
2013,02,02,11,15,-13.10
2013,02,02,11,16,-13.10
2013,02,02,11,17,-13.10
2013,02,02,11,18,-13.10
2013,02,02,11,19,-13.10
2013,02,02,11,20,-13.00
2013,02,02,11,21,-13.00
2013,02,02,11,22,-13.00
2013,02,02,11,23,-13.00
2013,02,02,11,24,-13.00
2013,02,02,11,25,-13.00
2013,02,02,11,26,-13.00
2013,02,02,11,27,-13.00
2013,02,02,11,28,-13.00
2013,02,02,11,29,-13.00
2013,02,02,11,30,-12.90
2013,02,02,11,31,-12.90
2013,02,02,11,32,-12.90
2013,02,02,11,33,-12.90
2013,02,02,11,34,-12.90
2013,02,02,11,35,-12.90
2013,02,02,11,36,-12.90
2013,02,02,11,37,-12.90
2013,02,02,11,38,-12.80
2013,02,02,11,39,-12.80
2013,02,02,11,40,-12.80
2013,02,02,11,41,-12.80
2013,02,02,11,42,-12.80
2013,02,02,11,43,-12.80
2013,02,02,11,44,-12.80
2013,02,02,11,45,-12.80
2013,02,02,11,46,-12.80
2013,02,02,11,47,-12.80
2013,02,02,11,48,-12.80
2013,02,02,11,49,-12.80
2013,02,02,11,50,-12.70
2013,02,02,11,51,-12.70
2013,02,02,11,52,-12.70
2013,02,02,11,53,-12.70
2013,02,02,11,54,-12.70
2013,02,02,11,55,-12.70
2013,02,02,11,56,-12.70
2013,02,02,11,57,-12.70
2013,02,02,11,58,-12.70
2013,02,02,11,59,-12.70
2013,02,02,12,00,-12.70
2013,02,02,12,01,-12.60
2013,02,02,12,02,-12.60
2013,02,02,12,03,-12.60
2013,02,02,12,04,-12.70
2013,02,02,12,05,-12.60
2013,02,02,12,06,-12.60
2013,02,02,12,07,-12.60
2013,02,02,12,08,-12.60
2013,02,02,12,09,-12.60
2013,02,02,12,10,-12.60
2013,02,02,12,11,-12.60
2013,02,02,12,12,-12.60
2013,02,02,12,13,-12.60
2013,02,02,12,14,-12.60
2013,02,02,12,15,-12.60
2013,02,02,12,16,-12.60
2013,02,02,12,17,-12.60
2013,02,02,12,18,-12.60
2013,02,02,12,19,-12.60
2013,02,02,12,20,-12.60
2013,02,02,12,21,-12.60
2013,02,02,12,22,-12.60
2013,02,02,12,23,-12.60
2013,02,02,12,24,-12.60
2013,02,02,12,25,-12.60
2013,02,02,12,26,-12.60
2013,02,02,12,27,-12.60
2013,02,02,12,28,-12.60
2013,02,02,12,29,-12.60
2013,02,02,12,30,-12.60
2013,02,02,12,31,-12.60
2013,02,02,12,32,-12.50
2013,02,02,12,33,-12.50
2013,02,02,12,34,-12.50
2013,02,02,12,35,-12.50
2013,02,02,12,36,-12.50
2013,02,02,12,37,-12.50
2013,02,02,12,38,-12.50
2013,02,02,12,39,-12.50
2013,02,02,12,40,-12.50
2013,02,02,12,41,-12.50
2013,02,02,12,42,-12.50
2013,02,02,12,43,-12.50
2013,02,02,12,44,-12.50
2013,02,02,12,45,-12.50
2013,02,02,12,46,-12.50
2013,02,02,12,47,-12.50
2013,02,02,12,48,-12.50
2013,02,02,12,49,-12.50
2013,02,02,12,50,-12.50
2013,02,02,12,51,-12.50
2013,02,02,12,52,-12.50
2013,02,02,12,53,-12.50
2013,02,02,12,54,-12.60
2013,02,02,12,55,-12.60
2013,02,02,12,56,-12.60
2013,02,02,12,57,-12.60
2013,02,02,12,58,-12.60
2013,02,02,12,59,-12.60
2013,02,02,13,00,-12.60
2013,02,02,13,01,-12.60
2013,02,02,13,02,-12.60
2013,02,02,13,03,-12.60
2013,02,02,13,04,-12.60
2013,02,02,13,05,-12.60
2013,02,02,13,06,-12.60
2013,02,02,13,07,-12.60
2013,02,02,13,08,-12.60
2013,02,02,13,09,-12.60
2013,02,02,13,10,-12.60
2013,02,02,13,11,-12.60
2013,02,02,13,12,-12.60
2013,02,02,13,13,-12.60
2013,02,02,13,14,-12.60
2013,02,02,13,15,-12.60
2013,02,02,13,16,-12.60
2013,02,02,13,17,-12.60
2013,02,02,13,18,-12.50
2013,02,02,13,19,-12.50
2013,02,02,13,20,-12.50
2013,02,02,13,21,-12.50
2013,02,02,13,22,-12.50
2013,02,02,13,23,-12.50
2013,02,02,13,24,-12.50
2013,02,02,13,25,-12.50
2013,02,02,13,26,-12.50
2013,02,02,13,27,-12.50
2013,02,02,13,28,-12.50
2013,02,02,13,29,-12.50
2013,02,02,13,30,-12.50
2013,02,02,13,31,-12.50
2013,02,02,13,32,-12.50
2013,02,02,13,33,-12.50
2013,02,02,13,34,-12.50
2013,02,02,13,35,-12.50
2013,02,02,13,36,-12.50
2013,02,02,13,37,-12.50
2013,02,02,13,38,-12.50
2013,02,02,13,39,-12.40
2013,02,02,13,40,-12.40
2013,02,02,13,41,-12.40
2013,02,02,13,42,-12.40
2013,02,02,13,43,-12.40
2013,02,02,13,44,-12.40
2013,02,02,13,45,-12.40
2013,02,02,13,46,-12.40
2013,02,02,13,47,-12.40
2013,02,02,13,48,-12.30
2013,02,02,13,49,-12.30
2013,02,02,13,50,-12.30
2013,02,02,13,51,-12.30
2013,02,02,13,52,-12.30
2013,02,02,13,53,-12.30
2013,02,02,13,54,-12.30
2013,02,02,13,55,-12.30
2013,02,02,13,56,-12.30
2013,02,02,13,57,-12.30
2013,02,02,13,58,-12.30
2013,02,02,13,59,-12.30
2013,02,02,14,00,-12.30
2013,02,02,14,01,-12.30
2013,02,02,14,02,-12.30
2013,02,02,14,03,-12.30
2013,02,02,14,04,-12.30
2013,02,02,14,05,-12.30
2013,02,02,14,06,-12.30
2013,02,02,14,07,-12.30
2013,02,02,14,08,-12.30
2013,02,02,14,09,-12.30
2013,02,02,14,10,-12.30
2013,02,02,14,11,-12.30
2013,02,02,14,12,-12.20
2013,02,02,14,13,-12.20
2013,02,02,14,14,-12.20
2013,02,02,14,15,-12.20
2013,02,02,14,16,-12.20
2013,02,02,14,17,-12.20
2013,02,02,14,18,-12.20
2013,02,02,14,19,-12.20
2013,02,02,14,20,-12.20
2013,02,02,14,21,-12.20
2013,02,02,14,22,-12.20
2013,02,02,14,23,-12.20
2013,02,02,14,24,-12.20
2013,02,02,14,25,-12.20
2013,02,02,14,26,-12.20
2013,02,02,14,27,-12.10
2013,02,02,14,28,-12.10
2013,02,02,14,29,-12.10
2013,02,02,14,30,-12.10
2013,02,02,14,31,-12.10
2013,02,02,14,32,-12.10
2013,02,02,14,33,-12.00
2013,02,02,14,34,-12.00
2013,02,02,14,35,-12.00
2013,02,02,14,36,-12.00
2013,02,02,14,37,-11.90
2013,02,02,14,38,-11.90
2013,02,02,14,39,-11.90
2013,02,02,14,40,-11.90
2013,02,02,14,41,-11.90
2013,02,02,14,42,-11.90
2013,02,02,14,43,-11.90
2013,02,02,14,44,-11.90
2013,02,02,14,45,-11.80
2013,02,02,14,46,-11.80
2013,02,02,14,47,-11.80
2013,02,02,14,48,-11.80
2013,02,02,14,49,-11.80
2013,02,02,14,50,-11.80
2013,02,02,14,51,-11.80
2013,02,02,14,52,-11.80
2013,02,02,14,53,-11.80
2013,02,02,14,54,-11.80
2013,02,02,14,55,-11.80
2013,02,02,14,56,-11.80
2013,02,02,14,57,-11.80
2013,02,02,14,58,-11.80
2013,02,02,14,59,-11.80
2013,02,02,15,00,-11.90
2013,02,02,15,01,-11.90
2013,02,02,15,02,-11.90
2013,02,02,15,03,-11.90
2013,02,02,15,04,-11.90
2013,02,02,15,05,-11.90
2013,02,02,15,06,-11.90
2013,02,02,15,07,-11.90
2013,02,02,15,08,-11.90
2013,02,02,15,09,-11.90
2013,02,02,15,10,-11.90
2013,02,02,15,11,-11.80
2013,02,02,15,12,-11.80
2013,02,02,15,13,-11.80
2013,02,02,15,14,-11.80
2013,02,02,15,15,-11.80
2013,02,02,15,16,-11.80
2013,02,02,15,17,-11.80
2013,02,02,15,18,-11.80
2013,02,02,15,19,-11.80
2013,02,02,15,20,-11.80
2013,02,02,15,21,-11.80
2013,02,02,15,22,-11.80
2013,02,02,15,23,-11.80
2013,02,02,15,24,-11.80
2013,02,02,15,25,-11.80
2013,02,02,15,26,-11.80
2013,02,02,15,27,-11.70
2013,02,02,15,28,-11.70
2013,02,02,15,29,-11.70
2013,02,02,15,30,-11.70
2013,02,02,15,31,-11.70
2013,02,02,15,32,-11.70
2013,02,02,15,33,-11.70
2013,02,02,15,34,-11.70
2013,02,02,15,35,-11.70
2013,02,02,15,36,-11.70
2013,02,02,15,37,-11.70
2013,02,02,15,38,-11.70
2013,02,02,15,39,-11.70
2013,02,02,15,40,-11.70
2013,02,02,15,41,-11.60
2013,02,02,15,42,-11.60
2013,02,02,15,43,-11.60
2013,02,02,15,44,-11.60
2013,02,02,15,45,-11.60
2013,02,02,15,46,-11.60
2013,02,02,15,47,-11.60
2013,02,02,15,48,-11.60
2013,02,02,15,49,-11.70
2013,02,02,15,50,-11.70
2013,02,02,15,51,-11.70
2013,02,02,15,52,-11.70
2013,02,02,15,53,-11.70
2013,02,02,15,54,-11.70
2013,02,02,15,55,-11.70
2013,02,02,15,56,-11.70
2013,02,02,15,57,-11.70
2013,02,02,15,58,-11.70
2013,02,02,15,59,-11.70
2013,02,02,16,00,-11.70
2013,02,02,16,01,-11.70
2013,02,02,16,02,-11.70
2013,02,02,16,03,-11.70
2013,02,02,16,04,-11.70
2013,02,02,16,05,-11.70
2013,02,02,16,06,-11.70
2013,02,02,16,07,-11.70
2013,02,02,16,08,-11.70
2013,02,02,16,09,-11.70
2013,02,02,16,10,-11.70
2013,02,02,16,11,-11.70
2013,02,02,16,12,-11.70
2013,02,02,16,13,-11.70
2013,02,02,16,14,-11.70
2013,02,02,16,15,-11.70
2013,02,02,16,16,-11.70
2013,02,02,16,17,-11.70
2013,02,02,16,18,-11.70
2013,02,02,16,19,-11.70
2013,02,02,16,20,-11.70
2013,02,02,16,21,-11.70
2013,02,02,16,22,-11.70
2013,02,02,16,23,-11.70
2013,02,02,16,24,-11.70
2013,02,02,16,25,-11.70
2013,02,02,16,26,-11.70
2013,02,02,16,27,-11.70
2013,02,02,16,28,-11.70
2013,02,02,16,29,-11.70
2013,02,02,16,30,-11.70
2013,02,02,16,31,-11.70
2013,02,02,16,32,-11.70
2013,02,02,16,33,-11.70
2013,02,02,16,34,-11.70
2013,02,02,16,35,-11.70
2013,02,02,16,36,-11.70